ALI2256 GABS-GLRB

Flight info

Callsign ALI2256
Flight time 1h 5m
Altitude 34000
Route MOPAL UG852 PONKA GUKIL1B
Aircraft B752/M-SDE2E3FGHIJ3J4J7RWXY/LB1

Departure

Time 2026-05-05 20:32
Airport Modibo Keita International Airport (GABS)

Arrival

Time 2026-05-05 21:38
Airport Roberts International Airport (GLRB)
Time Latitude Longitude Altitude Speed Heading
2026-05-05 20:11 12.54082 -7.94519 1259 ft 0 kts 327°
2026-05-05 20:21 12.54080 -7.94518 1259 ft 1 kts 327°
2026-05-05 20:21 12.54068 -7.94510 1259 ft 2 kts 327°
2026-05-05 20:22 12.54054 -7.94503 1259 ft 2 kts 353°
2026-05-05 20:22 12.54039 -7.94504 1259 ft 2 kts 20°
2026-05-05 20:22 12.54026 -7.94512 1258 ft 2 kts 48°
2026-05-05 20:22 12.54022 -7.94518 1258 ft 1 kts 60°
2026-05-05 20:23 12.54021 -7.94521 1258 ft 0 kts 57°
2026-05-05 20:25 12.54025 -7.94511 1258 ft 3 kts 75°
2026-05-05 20:25 12.54011 -7.94475 1258 ft 7 kts 128°
2026-05-05 20:25 12.53973 -7.94443 1257 ft 7 kts 147°
2026-05-05 20:25 12.53929 -7.94415 1256 ft 7 kts 147°
2026-05-05 20:26 12.53884 -7.94386 1256 ft 7 kts 148°
2026-05-05 20:26 12.53838 -7.94356 1255 ft 7 kts 148°
2026-05-05 20:26 12.53785 -7.94337 1253 ft 8 kts 182°
2026-05-05 20:26 12.53726 -7.94405 1251 ft 16 kts 243°
2026-05-05 20:27 12.53667 -7.94508 1248 ft 17 kts 237°
2026-05-05 20:27 12.53598 -7.94615 1244 ft 18 kts 237°
2026-05-05 20:27 12.53524 -7.94733 1241 ft 21 kts 237°
2026-05-05 20:27 12.53438 -7.94865 1235 ft 23 kts 236°
2026-05-05 20:28 12.53349 -7.95003 1230 ft 23 kts 237°
2026-05-05 20:28 12.53254 -7.95150 1224 ft 25 kts 237°
2026-05-05 20:28 12.53158 -7.95301 1219 ft 25 kts 237°
2026-05-05 20:28 12.53056 -7.95458 1213 ft 26 kts 237°
2026-05-05 20:29 12.52955 -7.95618 1208 ft 27 kts 236°
2026-05-05 20:29 12.52849 -7.95778 1204 ft 23 kts 236°
2026-05-05 20:29 12.52769 -7.95902 1200 ft 10 kts 237°
2026-05-05 20:29 12.52743 -7.95961 1198 ft 9 kts 260°
2026-05-05 20:30 12.52728 -7.96019 1196 ft 6 kts 209°
2026-05-05 20:30 12.52707 -7.96007 1196 ft 3 kts 111°
2026-05-05 20:30 12.52708 -7.95994 1196 ft 1 kts 57°
2026-05-05 20:31 12.52793 -7.95863 1201 ft 52 kts 57°
2026-05-05 20:31 12.53116 -7.95362 1217 ft 114 kts 57°
2026-05-05 20:31 12.53662 -7.94512 1266 ft 169 kts 59°
2026-05-05 20:32 12.54330 -7.93425 1664 ft 190 kts 58°
2026-05-05 20:32 12.55019 -7.92307 2598 ft 183 kts 58°
2026-05-05 20:32 12.55712 -7.91145 2754 ft 205 kts 67°
2026-05-05 20:32 12.55895 -7.89661 2966 ft 222 kts 103°
2026-05-05 20:33 12.55158 -7.88248 3281 ft 238 kts 134°
2026-05-05 20:33 12.53683 -7.87349 3582 ft 258 kts 163°
2026-05-05 20:33 12.51848 -7.87231 3924 ft 276 kts 189°
2026-05-05 20:33 12.50031 -7.87971 4481 ft 282 kts 209°
2026-05-05 20:34 12.48342 -7.89001 4965 ft 291 kts 208°
2026-05-05 20:34 12.46535 -7.89994 5609 ft 292 kts 206°
2026-05-05 20:34 12.44723 -7.90907 6206 ft 296 kts 204°
2026-05-05 20:34 12.42825 -7.91811 6841 ft 298 kts 203°
2026-05-05 20:35 12.40929 -7.92688 7405 ft 303 kts 202°
2026-05-05 20:35 12.39000 -7.93563 8060 ft 304 kts 202°
2026-05-05 20:35 12.37032 -7.94448 8640 ft 309 kts 201°
2026-05-05 20:35 12.35079 -7.95321 9355 ft 309 kts 201°
2026-05-05 20:36 12.33082 -7.96211 9990 ft 312 kts 201°
2026-05-05 20:36 12.31066 -7.97106 10409 ft 325 kts 201°
2026-05-05 20:36 12.28917 -7.98058 10647 ft 344 kts 201°
2026-05-05 20:36 12.26683 -7.99050 10976 ft 359 kts 201°
2026-05-05 20:37 12.24394 -8.00067 11748 ft 358 kts 202°
2026-05-05 20:37 12.22083 -8.01093 12381 ft 362 kts 202°
2026-05-05 20:37 12.19791 -8.02110 13054 ft 363 kts 202°
2026-05-05 20:37 12.17455 -8.03147 13670 ft 366 kts 202°
2026-05-05 20:38 12.15094 -8.04194 14248 ft 369 kts 202°
2026-05-05 20:38 12.12747 -8.05235 14793 ft 372 kts 201°
2026-05-05 20:38 12.10337 -8.06304 15372 ft 374 kts 201°
2026-05-05 20:38 12.07958 -8.07357 15932 ft 376 kts 201°
2026-05-05 20:39 12.05538 -8.08430 16458 ft 379 kts 201°
2026-05-05 20:39 12.03091 -8.09514 16970 ft 382 kts 201°
2026-05-05 20:39 12.00665 -8.10589 17516 ft 384 kts 201°
2026-05-05 20:39 11.98186 -8.11685 18023 ft 386 kts 201°
2026-05-05 20:40 11.95710 -8.12782 18536 ft 389 kts 201°
2026-05-05 20:40 11.93241 -8.13874 19041 ft 391 kts 202°
2026-05-05 20:40 11.90710 -8.14994 19583 ft 392 kts 202°
2026-05-05 20:40 11.88197 -8.16106 20043 ft 395 kts 202°
2026-05-05 20:41 11.85675 -8.17222 20515 ft 397 kts 202°
2026-05-05 20:41 11.83122 -8.18351 20999 ft 399 kts 202°
2026-05-05 20:41 11.80588 -8.19473 21450 ft 400 kts 202°
2026-05-05 20:41 11.78027 -8.20605 21926 ft 401 kts 202°
2026-05-05 20:42 11.75431 -8.21752 22327 ft 404 kts 202°
2026-05-05 20:42 11.72862 -8.22887 22744 ft 407 kts 203°
2026-05-05 20:42 11.70230 -8.24049 23120 ft 410 kts 203°
2026-05-05 20:42 11.67600 -8.25211 23579 ft 411 kts 204°
2026-05-05 20:43 11.64972 -8.26372 23882 ft 416 kts 204°
2026-05-05 20:43 11.62290 -8.27555 24352 ft 417 kts 204°
2026-05-05 20:43 11.59630 -8.28731 24621 ft 422 kts 204°
2026-05-05 20:43 11.56923 -8.29926 25032 ft 424 kts 204°
2026-05-05 20:44 11.54186 -8.31133 25374 ft 427 kts 205°
2026-05-05 20:44 11.51459 -8.32337 25740 ft 429 kts 205°
2026-05-05 20:44 11.48703 -8.33553 26091 ft 432 kts 205°
2026-05-05 20:44 11.45920 -8.34780 26444 ft 434 kts 205°
2026-05-05 20:45 11.40348 -8.37237 27085 ft 439 kts 205°
2026-05-05 20:45 11.37524 -8.38482 27397 ft 441 kts 205°
2026-05-05 20:45 11.34730 -8.39713 27711 ft 443 kts 205°
2026-05-05 20:46 11.31866 -8.40974 28008 ft 445 kts 205°
2026-05-05 20:46 11.28997 -8.42144 28248 ft 449 kts 201°
2026-05-05 20:46 11.26012 -8.43155 28511 ft 452 kts 200°
2026-05-05 20:46 11.23041 -8.44166 28820 ft 453 kts 200°
2026-05-05 20:47 11.20019 -8.45190 29091 ft 455 kts 200°
2026-05-05 20:47 11.17028 -8.46199 29446 ft 454 kts 200°
2026-05-05 20:47 11.13999 -8.47221 29728 ft 455 kts 200°
2026-05-05 20:47 11.11005 -8.48229 29979 ft 456 kts 200°
2026-05-05 20:48 11.07960 -8.49254 30246 ft 457 kts 200°
2026-05-05 20:48 11.04967 -8.50261 30527 ft 457 kts 200°
2026-05-05 20:48 11.01918 -8.51286 30774 ft 457 kts 200°
2026-05-05 20:48 10.98902 -8.52300 30950 ft 459 kts 200°
2026-05-05 20:49 10.95866 -8.53320 31350 ft 456 kts 200°
2026-05-05 20:49 10.92873 -8.54326 31686 ft 454 kts 200°
2026-05-05 20:49 10.89859 -8.55338 31999 ft 452 kts 200°
2026-05-05 20:49 10.86850 -8.56349 32297 ft 451 kts 200°
2026-05-05 20:50 10.83893 -8.57342 32597 ft 450 kts 200°
2026-05-05 20:50 10.80918 -8.58340 32983 ft 447 kts 200°
2026-05-05 20:50 10.77938 -8.59341 33149 ft 449 kts 200°
2026-05-05 20:50 10.74988 -8.60330 33468 ft 447 kts 200°
2026-05-05 20:51 10.72037 -8.61321 33747 ft 447 kts 200°
2026-05-05 20:51 10.69093 -8.62308 33928 ft 444 kts 200°
2026-05-05 20:51 10.63239 -8.64272 33924 ft 444 kts 200°
2026-05-05 20:52 10.57305 -8.66261 33931 ft 446 kts 200°
2026-05-05 20:52 10.51428 -8.68230 33929 ft 445 kts 200°
2026-05-05 20:53 10.45657 -8.70473 33933 ft 445 kts 204°
2026-05-05 20:53 10.39903 -8.72858 33931 ft 444 kts 203°
2026-05-05 20:54 10.34175 -8.75226 33932 ft 444 kts 203°
2026-05-05 20:54 10.28431 -8.77598 33937 ft 445 kts 203°
2026-05-05 20:55 10.22682 -8.79969 33937 ft 445 kts 203°
2026-05-05 20:55 10.16909 -8.82350 33939 ft 447 kts 203°
2026-05-05 20:56 10.11157 -8.84721 33942 ft 446 kts 203°
2026-05-05 20:56 10.05373 -8.87105 33939 ft 447 kts 203°
2026-05-05 20:57 9.99627 -8.89471 33947 ft 447 kts 203°
2026-05-05 20:57 9.93835 -8.91855 33952 ft 447 kts 203°
2026-05-05 20:58 9.88060 -8.94232 33962 ft 447 kts 203°
2026-05-05 20:58 9.82305 -8.96599 33960 ft 447 kts 203°
2026-05-05 20:59 9.76507 -8.98984 33973 ft 447 kts 203°
2026-05-05 20:59 9.70728 -9.01359 33969 ft 446 kts 203°
2026-05-05 21:00 9.64997 -9.03715 33977 ft 446 kts 203°
2026-05-05 21:00 9.59215 -9.06090 33965 ft 447 kts 203°
2026-05-05 21:01 9.53437 -9.08462 33980 ft 447 kts 202°
2026-05-05 21:01 9.47671 -9.10829 33974 ft 447 kts 202°
2026-05-05 21:02 9.41922 -9.13188 33985 ft 447 kts 202°
2026-05-05 21:02 9.36149 -9.15555 34003 ft 444 kts 202°
2026-05-05 21:03 9.30376 -9.17922 34022 ft 445 kts 202°
2026-05-05 21:03 9.24654 -9.20267 34035 ft 444 kts 202°
2026-05-05 21:04 9.18913 -9.22620 34051 ft 445 kts 202°
2026-05-05 21:04 9.13156 -9.24978 34057 ft 445 kts 202°
2026-05-05 21:05 9.07404 -9.27333 34074 ft 446 kts 202°
2026-05-05 21:05 9.01619 -9.29611 34082 ft 446 kts 201°
2026-05-05 21:06 8.95795 -9.31830 34082 ft 447 kts 201°
2026-05-05 21:06 8.89928 -9.34067 34067 ft 449 kts 201°
2026-05-05 21:07 8.84060 -9.36303 34057 ft 450 kts 201°
2026-05-05 21:07 8.78192 -9.38539 34049 ft 449 kts 201°
2026-05-05 21:08 8.72358 -9.40762 34040 ft 449 kts 201°
2026-05-05 21:08 8.66482 -9.42999 34032 ft 448 kts 201°
2026-05-05 21:09 8.60637 -9.45224 34020 ft 447 kts 201°
2026-05-05 21:09 8.54809 -9.47442 34017 ft 450 kts 200°
2026-05-05 21:10 8.48922 -9.49681 34019 ft 454 kts 200°
2026-05-05 21:10 8.42951 -9.51950 34018 ft 458 kts 201°
2026-05-05 21:11 8.37001 -9.54212 34016 ft 456 kts 201°
2026-05-05 21:11 8.31012 -9.56488 33421 ft 461 kts 201°
2026-05-05 21:12 8.28034 -9.57619 32847 ft 452 kts 201°
2026-05-05 21:12 8.25123 -9.58725 32329 ft 444 kts 201°
2026-05-05 21:12 8.22257 -9.59814 31843 ft 440 kts 201°
2026-05-05 21:12 8.19344 -9.60921 31356 ft 445 kts 201°
2026-05-05 21:13 8.16432 -9.62027 30867 ft 452 kts 201°
2026-05-05 21:13 8.13484 -9.63146 30365 ft 455 kts 201°
2026-05-05 21:13 8.10506 -9.64276 29867 ft 452 kts 201°
2026-05-05 21:13 8.07586 -9.65384 29371 ft 447 kts 201°
2026-05-05 21:14 8.04690 -9.66483 28847 ft 443 kts 201°
2026-05-05 21:14 8.01801 -9.67579 28329 ft 439 kts 201°
2026-05-05 21:14 7.98926 -9.68670 27814 ft 435 kts 201°
2026-05-05 21:14 7.96113 -9.69738 27310 ft 431 kts 201°
2026-05-05 21:15 7.93333 -9.70792 26810 ft 427 kts 201°
2026-05-05 21:15 7.90550 -9.71848 26310 ft 424 kts 201°
2026-05-05 21:15 7.87772 -9.72901 25812 ft 421 kts 201°
2026-05-05 21:15 7.85079 -9.74023 25333 ft 419 kts 205°
2026-05-05 21:16 7.82463 -9.75271 24855 ft 416 kts 205°
2026-05-05 21:16 7.79856 -9.76497 24378 ft 414 kts 205°
2026-05-05 21:16 7.77232 -9.77730 23896 ft 410 kts 205°
2026-05-05 21:16 7.74667 -9.78932 23431 ft 406 kts 205°
2026-05-05 21:17 7.72121 -9.80125 22976 ft 402 kts 205°
2026-05-05 21:17 7.69568 -9.81320 22525 ft 399 kts 205°
2026-05-05 21:17 7.67076 -9.82486 22091 ft 396 kts 205°
2026-05-05 21:17 7.64574 -9.83656 21666 ft 394 kts 204°
2026-05-05 21:18 7.62073 -9.84827 21236 ft 392 kts 204°
2026-05-05 21:18 7.59616 -9.85976 20812 ft 390 kts 204°
2026-05-05 21:18 7.57156 -9.87125 20380 ft 387 kts 204°
2026-05-05 21:18 7.54712 -9.88269 19946 ft 384 kts 204°
2026-05-05 21:19 7.52322 -9.89386 19517 ft 380 kts 203°
2026-05-05 21:19 7.49909 -9.90513 19084 ft 376 kts 203°
2026-05-05 21:19 7.47567 -9.91608 18664 ft 373 kts 203°
2026-05-05 21:19 7.45199 -9.92714 18239 ft 372 kts 203°
2026-05-05 21:20 7.42846 -9.93813 17811 ft 370 kts 203°
2026-05-05 21:20 7.40533 -9.94893 17384 ft 368 kts 202°
2026-05-05 21:20 7.38207 -9.95980 16955 ft 365 kts 203°
2026-05-05 21:20 7.35920 -9.97048 16532 ft 362 kts 202°
2026-05-05 21:21 7.33626 -9.98119 16108 ft 359 kts 202°
2026-05-05 21:21 7.31384 -9.99166 15696 ft 358 kts 202°
2026-05-05 21:21 7.29116 -10.00225 15274 ft 357 kts 202°
2026-05-05 21:21 7.26863 -10.01275 14849 ft 356 kts 202°
2026-05-05 21:22 7.24610 -10.02327 14418 ft 355 kts 202°
2026-05-05 21:22 7.22370 -10.03373 13988 ft 353 kts 202°
2026-05-05 21:22 7.20148 -10.04411 13564 ft 352 kts 202°
2026-05-05 21:22 7.17919 -10.05450 13140 ft 350 kts 202°
2026-05-05 21:23 7.15707 -10.06482 12713 ft 348 kts 202°
2026-05-05 21:23 7.13521 -10.07502 12297 ft 346 kts 202°
2026-05-05 21:23 7.11319 -10.08529 11873 ft 345 kts 202°
2026-05-05 21:23 7.09144 -10.09543 11453 ft 343 kts 202°
2026-05-05 21:24 7.06992 -10.10546 11050 ft 342 kts 202°
2026-05-05 21:24 7.04824 -10.11558 10639 ft 340 kts 202°
2026-05-05 21:24 7.02693 -10.12551 10222 ft 336 kts 202°
2026-05-05 21:24 7.00629 -10.13515 9775 ft 318 kts 202°
2026-05-05 21:25 6.98666 -10.14432 9545 ft 296 kts 202°
2026-05-05 21:25 6.96831 -10.15288 9542 ft 295 kts 202°
2026-05-05 21:25 6.94918 -10.16177 9460 ft 303 kts 201°
2026-05-05 21:25 6.93000 -10.17069 9290 ft 304 kts 202°
2026-05-05 21:26 6.91075 -10.17968 9044 ft 301 kts 202°
2026-05-05 21:26 6.89187 -10.18845 8750 ft 299 kts 201°
2026-05-05 21:26 6.87170 -10.19383 8294 ft 295 kts 180°
2026-05-05 21:26 6.85138 -10.19443 8032 ft 289 kts 178°
2026-05-05 21:27 6.83144 -10.19503 7778 ft 285 kts 178°
2026-05-05 21:27 6.81164 -10.19548 7533 ft 281 kts 177°
2026-05-05 21:27 6.79216 -10.19585 7299 ft 280 kts 177°
2026-05-05 21:27 6.77254 -10.19618 7065 ft 280 kts 178°
2026-05-05 21:28 6.75283 -10.19648 6817 ft 280 kts 178°
2026-05-05 21:28 6.73346 -10.19679 6566 ft 278 kts 178°
2026-05-05 21:28 6.71423 -10.19707 6313 ft 276 kts 178°
2026-05-05 21:28 6.69490 -10.19736 6064 ft 274 kts 178°
2026-05-05 21:29 6.67588 -10.19763 5820 ft 272 kts 178°
2026-05-05 21:29 6.65703 -10.19791 5578 ft 270 kts 179°
2026-05-05 21:29 6.63815 -10.19819 5333 ft 269 kts 178°
2026-05-05 21:29 6.61920 -10.19846 5082 ft 268 kts 179°
2026-05-05 21:30 6.60072 -10.19873 4823 ft 266 kts 179°
2026-05-05 21:30 6.58219 -10.19899 4578 ft 263 kts 180°
2026-05-05 21:30 6.56394 -10.19926 4360 ft 260 kts 180°
2026-05-05 21:30 6.54602 -10.19952 4166 ft 259 kts 180°
2026-05-05 21:31 6.52779 -10.19979 3890 ft 262 kts 180°
2026-05-05 21:31 6.50946 -10.20050 3470 ft 259 kts 191°
2026-05-05 21:31 6.49297 -10.20706 3164 ft 255 kts 211°
2026-05-05 21:31 6.47771 -10.21597 2988 ft 248 kts 210°
2026-05-05 21:32 6.46303 -10.22446 2802 ft 242 kts 211°
2026-05-05 21:32 6.44846 -10.23306 2573 ft 240 kts 211°
2026-05-05 21:32 6.43423 -10.24154 2293 ft 239 kts 212°
2026-05-05 21:32 6.41995 -10.25009 2030 ft 237 kts 212°
2026-05-05 21:33 6.40585 -10.25854 1917 ft 228 kts 212°
2026-05-05 21:33 6.39258 -10.26651 1925 ft 214 kts 212°
2026-05-05 21:33 6.38023 -10.27395 1922 ft 200 kts 212°
2026-05-05 21:33 6.36869 -10.28089 1955 ft 183 kts 212°
2026-05-05 21:34 6.35828 -10.28715 1914 ft 168 kts 213°
2026-05-05 21:34 6.34837 -10.29313 1922 ft 164 kts 213°
2026-05-05 21:34 6.33850 -10.29909 1939 ft 162 kts 213°
2026-05-05 21:34 6.32947 -10.30451 1899 ft 139 kts 213°
2026-05-05 21:35 6.32131 -10.30943 1712 ft 135 kts 213°
2026-05-05 21:35 6.31332 -10.31426 1537 ft 134 kts 213°
2026-05-05 21:35 6.30519 -10.31918 1371 ft 136 kts 213°
2026-05-05 21:35 6.29705 -10.32409 1193 ft 136 kts 213°
2026-05-05 21:36 6.28893 -10.32899 1009 ft 137 kts 213°
2026-05-05 21:36 6.28055 -10.33418 852 ft 147 kts 212°
2026-05-05 21:36 6.27193 -10.33927 708 ft 140 kts 212°
2026-05-05 21:36 6.26370 -10.34429 512 ft 139 kts 212°
2026-05-05 21:37 6.25526 -10.34941 338 ft 140 kts 211°
2026-05-05 21:37 6.24682 -10.35447 143 ft 143 kts 211°
2026-05-05 21:37 6.23833 -10.35962 51 ft 137 kts 211°
2026-05-05 21:37 6.23189 -10.36350 50 ft 73 kts 211°
2026-05-05 21:38 6.22874 -10.36537 53 ft 44 kts 211°
2026-05-05 21:38 6.22718 -10.36629 53 ft 22 kts 211°
2026-05-05 21:38 6.22590 -10.36708 54 ft 20 kts 212°
2026-05-05 21:38 6.22470 -10.36783 55 ft 19 kts 211°
2026-05-05 21:39 6.22338 -10.36864 53 ft 24 kts 211°
2026-05-05 21:39 6.22193 -10.36951 55 ft 20 kts 211°
2026-05-05 21:39 6.22127 -10.36973 55 ft 6 kts 176°
2026-05-05 21:39 6.22093 -10.36983 54 ft 3 kts 262°
2026-05-05 21:40 6.22105 -10.36994 55 ft 2 kts 351°
2026-05-05 21:40 6.22159 -10.36971 55 ft 17 kts 32°
2026-05-05 21:40 6.22325 -10.36869 53 ft 38 kts 32°
2026-05-05 21:40 6.22595 -10.36707 54 ft 48 kts 31°
2026-05-05 21:41 6.22886 -10.36532 53 ft 47 kts 31°
2026-05-05 21:41 6.23164 -10.36365 50 ft 46 kts 31°
2026-05-05 21:41 6.23433 -10.36202 50 ft 44 kts 31°
2026-05-05 21:41 6.23662 -10.36064 50 ft 22 kts 31°
2026-05-05 21:42 6.23795 -10.35984 50 ft 21 kts 31°
2026-05-05 21:42 6.23921 -10.35907 50 ft 21 kts 31°
2026-05-05 21:42 6.24005 -10.35851 51 ft 6 kts 54°
2026-05-05 21:42 6.24014 -10.35806 51 ft 6 kts 102°
2026-05-05 21:43 6.23993 -10.35764 50 ft 7 kts 120°
2026-05-05 21:43 6.23966 -10.35718 50 ft 8 kts 120°
2026-05-05 21:43 6.23943 -10.35667 50 ft 7 kts 94°
2026-05-05 21:43 6.23963 -10.35623 50 ft 7 kts 47°
2026-05-05 21:44 6.24003 -10.35597 49 ft 9 kts 32°
2026-05-05 21:44 6.24064 -10.35559 49 ft 10 kts 31°
2026-05-05 21:44 6.24099 -10.35534 49 ft 3 kts 56°
2026-05-05 21:44 6.24106 -10.35512 50 ft 6 kts 82°
2026-05-05 21:45 6.24102 -10.35471 49 ft 6 kts 105°
2026-05-05 21:45 6.24098 -10.35456 49 ft 0 kts 105°